Regional Weather Roundup
Issued by NWS Huntsville, AL

Home | Current Version | Previous Version | Text Only | Print | Product List | Glossary On
Versions: 1 2 3 4 5 6 7 8 9 10 11 12 13 14 15 16 17 18 19 20 21 22 23 24 25 26 27 28 29 30 31 32 33 34 35 36 37 38 39 40 41 42 43 44 45 46 47 48 49 50
000
ASUS44 KHUN 031010
RWRHUN

WEATHER ROUNDUP FOR THE TENNESSEE VALLEY
NATIONAL WEATHER SERVICE HUNTSVILLE AL
500 AM CDT FRI JUL 03 2015

ALZ001>004-031100-
NORTHWEST ALABAMA

CITY           SKY/WX    TMP DP  RH WIND       PRES   REMARKS
COURTLAND HCN    N/A     72 N/A N/A W10         N/A
BANKHEAD NF      N/A     69  67  94 NW5         N/A
RUSSELLVILLE     N/A     70 N/A N/A MISG        N/A
SHOALS AIRPORT HVY RAIN  73  70  90 SW9       29.93S
SHOALS TVA RES   N/A     72 N/A N/A MISG        N/A
$$

ALZ005>007-016-031100-
NORTH CENTRAL ALABAMA

CITY           SKY/WX    TMP DP  RH WIND       PRES   REMARKS
CULLMAN AG STN   N/A     75 N/A N/A W8          N/A
DECATUR AP     TSTM      72  71  97 SW10      29.93S FOG
HUNTSVILLE AP  TSTM      74  70  87 W16G24    29.93R
HUN NWS/UAH      N/A     73  70  88 W8          N/A
MERIDIANVILLE  LGT RAIN  72  68  88 W5        29.91R
REDSTONE ARSN  LGT RAIN  73  72  94 W13G18    29.92R
VINEMONT AP    RAIN      71  69  93 W6        29.98R
$$

ALZ008>010-031100-
NORTHEAST ALABAMA

CITY           SKY/WX    TMP DP  RH WIND       PRES   REMARKS
ALBERTVILLE    TSTM      72  72 100 NW8G24    29.94R
FORT PAYNE     TSTM      73  70  88 SW7       29.92R
SCOTTSBORO AP  CLOUDY    75  73  94 SW9       29.90R THUNDER
SCOTTSBORO HCN   N/A     75 N/A N/A MISG        N/A
VALLEY HEAD      N/A     72 N/A N/A MISG        N/A
$$

TNZ076-096-097-031100-
SOUTHEASTERN MIDDLE TENNESSEE

CITY           SKY/WX    TMP DP  RH WIND       PRES   REMARKS
TULLAHOMA      PTCLDY    72  70  94 SW3       29.92R
WINCHESTER     MOCLDY    73  70  88 W3        29.92R
$$

...SURROUNDING SITES...

CITY           SKY/WX    TMP DP  RH WIND       PRES   REMARKS
ATLANTA        MOCLDY    76  72  87 SW9       29.96R
ANNISTON       PTCLDY    76  71  85 SW9       29.96R
BIRMINGHAM     MOCLDY    78  72  81 SW12      29.98R
CHATTANOOGA    CLOUDY    73  71  93 SW3       29.89R
CORINTH        CLOUDY    73  70  88 S7        29.88S
DALTON         CLOUDY    70  70 100 SE3       29.91S
GADSDEN        MOCLDY    88  68  51 SW12G21   29.92R HX  91
GOLDEN TRNGL   CLOUDY    79  70  73 SW10      29.94R
HALEYVILLE     TSTM      69  69 100 W3        30.01R FOG
JACKSON TN     CLOUDY    71  68  90 SW7       29.88R
MEMPHIS        CLOUDY    75  70  84 SW5       29.89R
NASHVILLE      CLOUDY    73  72  96 SW5       29.87R
ROME           TSTM      74  72  93 SW15G22   29.91R
SAVANNAH       CLOUDY    72  32  23 SW8       29.89R
TUPELO         TSTM      74  71  91 SW8       29.91F FOG
TUSCALOOSA     MOCLDY    75  72  90 S3        29.97R
$$

...GULF COAST WEATHER...

CITY           SKY/WX    TMP DP  RH WIND       PRES   REMARKS
GULFPORT       MOCLDY    80  76  87 CALM      30.03S
PASCAGOULA     CLOUDY    80  77  90 VRB5      30.03F
MOBILE         CLOUDY    77  76  96 SW5       30.05S
GULF SHORES    CLOUDY    80  76  90 SW5       30.03F
PENSACOLA      CLOUDY    80  75  84 SW7       30.02F
DESTIN         MOCLDY    82  77  84 SW9       30.03  HAZE    HX  90
PANAMA CITY    MOCLDY    82  76  82 SW8       30.04S
APPALACHICOLA  CLOUDY    83  74  74 SW6       30.05S
$$



USA.gov is the U.S. government's official web portal to all federal, state and local government web resources and services.